Location: Unspecified
(43.1763°N, 79.4719°W)
Time: 16:06:12
(UTC-04:00)

Resurs 1-4 Rocket - Visible Passes

Search period start: 25 May 2017 00:00
Search period end: 04 June 2017 00:00
Orbit: 800 x 814 km, 98.5° (Epoch: 24 May)

Date Brightness Start Highest point End Pass type
(mag) Time Alt. Az. Time Alt. Az. Time Alt. Az.
25 May 3.7 02:49:30 10° NE 02:53:57 27° E 02:57:02 16° SE visible
25 May 2.7 04:28:57 10° N 04:33:54 41° WNW 04:38:07 14° SW visible
26 May 4.3 02:25:55 10° NE 02:29:08 16° E 02:32:13 10° SE visible
26 May 2.2 04:04:11 10° N 04:09:27 68° WNW 04:13:18 19° SSW visible
27 May 2.2 03:39:35 10° NNE 03:44:55 75° ESE 03:48:28 22° S visible
28 May 2.9 03:15:11 10° NNE 03:20:17 45° E 03:23:38 20° SSE visible
28 May 3.4 04:55:34 10° N 04:59:51 25° WNW 05:04:09 10° WSW visible
29 May 3.7 02:51:04 10° NE 02:55:34 28° E 02:58:48 16° SE visible
29 May 2.8 04:30:34 10° N 04:35:30 40° WNW 04:39:54 13° SW visible
30 May 4.3 02:27:24 10° NE 02:30:46 17° E 02:33:59 10° SE visible
30 May 2.2 04:05:47 10° N 04:11:03 65° WNW 04:15:04 18° SSW visible
31 May 2.2 03:41:11 10° NNE 03:46:32 78° ESE 03:50:14 20° S visible
01 Jun 2.9 03:16:46 10° NNE 03:21:54 47° E 03:25:24 20° SSE visible
01 Jun 3.5 04:57:13 10° N 05:01:26 25° WNW 05:05:40 10° WSW visible
02 Jun 3.6 02:52:36 10° NE 02:57:12 29° E 03:00:33 16° SE visible
02 Jun 2.9 04:32:11 10° N 04:37:06 39° WNW 04:41:38 12° SW visible
03 Jun 4.3 02:28:54 10° NE 02:32:24 17° E 02:35:43 11° SE visible
03 Jun 2.3 04:07:23 10° N 04:12:39 63° WNW 04:16:47 17° SSW visible
